• In Uzbekistan
  • List of Countries
  • For 7 days
  • Water Temperature
  • Weather Map
  • Weather Widgets
  • user-avatar
    Login

    Hourly Weather Lamu

    Today, 19 September, Thursday

    Time Temperature Precipitation Wind Pressure Humidity
    00:00 +24°C° 0 mm 6 mps 760 mmHg 82%
    01:00 +24°C° 0 mm 6 mps 759 mmHg 82%
    02:00 +24°C° 0 mm 6 mps 759 mmHg 82%
    03:00 +24°C° 0 mm 6 mps 759 mmHg 82%
    04:00 +24°C° 0.1 mm 6 mps 759 mmHg 84%
    05:00 +25°C° 0.1 mm 5 mps 760 mmHg 87%
    06:00 +25°C° 0.1 mm 5 mps 760 mmHg 89%
    07:00 +26°C° 0.2 mm 5 mps 761 mmHg 82%
    08:00 +28°C° 0.2 mm 6 mps 761 mmHg 75%
    09:00 +30°C° 0 mm 6 mps 761 mmHg 67%
    10:00 +30°C° 0.1 mm 6 mps 761 mmHg 64%
    11:00 +32°C° 0.1 mm 6 mps 760 mmHg 60%
    12:00 +33°C° 0.1 mm 6 mps 760 mmHg 57%
    13:00 +33°C° 0.1 mm 7 mps 759 mmHg 57%
    14:00 +32°C° 0.1 mm 7 mps 759 mmHg 58%
    15:00 +32°C° 0 mm 7 mps 758 mmHg 59%
    16:00 +30°C° 0 mm 7 mps 758 mmHg 64%
    17:00 +29°C° 0 mm 7 mps 759 mmHg 69%
    18:00 +27°C° 0 mm 7 mps 759 mmHg 75%
    19:00 +27°C° 0 mm 7 mps 759 mmHg 77%
    20:00 +27°C° 0 mm 7 mps 760 mmHg 79%
    21:00 +26°C° 0 mm 6 mps 760 mmHg 81%
    22:00 +26°C° 0.1 mm 7 mps 760 mmHg 82%
    23:00 +26°C° 0.1 mm 7 mps 760 mmHg 83%

    Tomorrow, 20 September, Friday

    Time Temperature Precipitation Wind Pressure Humidity
    00:00 +26°C° 0.1 mm 7 mps 760 mmHg 84%
    01:00 +26°C° 0 mm 7 mps 760 mmHg 84%
    02:00 +24°C° 0 mm 7 mps 759 mmHg 84%
    03:00 +24°C° 0 mm 6 mps 759 mmHg 84%
    04:00 +24°C° 0 mm 6 mps 759 mmHg 83%
    05:00 +24°C° 0 mm 6 mps 760 mmHg 82%
    06:00 +24°C° 0 mm 6 mps 760 mmHg 82%
    07:00 +27°C° 0 mm 6 mps 760 mmHg 75%
    08:00 +28°C° 0 mm 6 mps 761 mmHg 69%
    09:00 +30°C° 0 mm 6 mps 761 mmHg 62%
    10:00 +30°C° 0 mm 6 mps 761 mmHg 59%
    11:00 +32°C° 0 mm 6 mps 761 mmHg 56%
    12:00 +33°C° 0 mm 6 mps 761 mmHg 53%
    13:00 +33°C° 0 mm 6 mps 760 mmHg 53%
    14:00 +32°C° 0 mm 6 mps 759 mmHg 54%
    15:00 +32°C° 0 mm 6 mps 758 mmHg 55%
    16:00 +30°C° 0 mm 6 mps 758 mmHg 61%
    17:00 +29°C° 0 mm 6 mps 759 mmHg 66%
    18:00 +27°C° 0 mm 6 mps 759 mmHg 71%
    19:00 +27°C° 0 mm 6 mps 759 mmHg 75%
    20:00 +26°C° 0 mm 6 mps 759 mmHg 78%
    21:00 +26°C° 0 mm 6 mps 759 mmHg 81%
    22:00 +26°C° 0 mm 6 mps 759 mmHg 82%
    23:00 +26°C° 0 mm 6 mps 759 mmHg 83%

    Day after tomorrow, 21 September, Saturday

    Time Temperature Precipitation Wind Pressure Humidity
    00:00 +26°C° 0 mm 6 mps 759 mmHg 84%
    01:00 +24°C° 0 mm 6 mps 759 mmHg 84%
    02:00 +24°C° 0 mm 6 mps 758 mmHg 85%
    03:00 +24°C° 0 mm 6 mps 758 mmHg 85%
    04:00 +24°C° 0 mm 6 mps 758 mmHg 83%
    05:00 +24°C° 0 mm 6 mps 759 mmHg 82%
    06:00 +24°C° 0 mm 6 mps 759 mmHg 80%
    07:00 +26°C° 0 mm 6 mps 760 mmHg 75%
    08:00 +28°C° 0 mm 6 mps 760 mmHg 69%
    09:00 +29°C° 0 mm 6 mps 761 mmHg 64%
    10:00 +30°C° 0 mm 6 mps 760 mmHg 59%
    11:00 +32°C° 0 mm 6 mps 760 mmHg 55%
    12:00 +33°C° 0 mm 5 mps 760 mmHg 51%
    13:00 +33°C° 0 mm 6 mps 759 mmHg 52%
    14:00 +33°C° 0 mm 6 mps 758 mmHg 53%
    15:00 +32°C° 0 mm 6 mps 758 mmHg 54%
    16:00 +30°C° 0 mm 6 mps 758 mmHg 60%
    17:00 +29°C° 0 mm 6 mps 758 mmHg 66%
    18:00 +27°C° 0 mm 6 mps 758 mmHg 72%
    19:00 +27°C° 0 mm 6 mps 758 mmHg 74%
    20:00 +26°C° 0 mm 6 mps 759 mmHg 76%
    21:00 +26°C° 0 mm 6 mps 759 mmHg 78%
    22:00 +26°C° 0 mm 6 mps 759 mmHg 80%
    23:00 +24°C° 0 mm 6 mps 759 mmHg 81%

    22 September, Sunday

    Time Temperature Precipitation Wind Pressure Humidity
    00:00 +24°C° 0 mm 6 mps 759 mmHg 82%
    01:00 +24°C° 0 mm 6 mps 759 mmHg 82%
    02:00 +24°C° 0 mm 6 mps 758 mmHg 82%
    03:00 +24°C° 0 mm 6 mps 758 mmHg 82%
    04:00 +24°C° 0 mm 6 mps 759 mmHg 81%
    05:00 +25°C° 0 mm 5 mps 759 mmHg 79%
    06:00 +25°C° 0 mm 5 mps 760 mmHg 78%
    07:00 +27°C° 0 mm 5 mps 760 mmHg 73%
    08:00 +28°C° 0 mm 5 mps 760 mmHg 68%
    09:00 +29°C° 0 mm 6 mps 761 mmHg 63%
    10:00 +30°C° 0 mm 6 mps 760 mmHg 59%
    11:00 +32°C° 0 mm 5 mps 760 mmHg 55%
    12:00 +33°C° 0 mm 5 mps 760 mmHg 51%
    13:00 +33°C° 0 mm 6 mps 759 mmHg 52%
    14:00 +33°C° 0 mm 6 mps 759 mmHg 54%
    15:00 +32°C° 0 mm 6 mps 758 mmHg 55%
    16:00 +30°C° 0 mm 6 mps 758 mmHg 60%
    17:00 +29°C° 0 mm 6 mps 758 mmHg 65%
    18:00 +27°C° 0 mm 6 mps 758 mmHg 71%
    19:00 +27°C° 0 mm 6 mps 758 mmHg 73%
    20:00 +26°C° 0 mm 6 mps 759 mmHg 75%
    21:00 +26°C° 0 mm 6 mps 759 mmHg 77%
    22:00 +26°C° 0 mm 6 mps 759 mmHg 79%
    23:00 +24°C° 0 mm 6 mps 759 mmHg 80%

    23 September, Monday

    Time Temperature Precipitation Wind Pressure Humidity
    00:00 +24°C° 0 mm 6 mps 759 mmHg 82%
    01:00 +25°C° 0 mm 5 mps 759 mmHg 81%
    02:00 +25°C° 0 mm 5 mps 759 mmHg 81%
    03:00 +23°C° 0 mm 5 mps 758 mmHg 80%
    04:00 +23°C° 0 mm 5 mps 759 mmHg 83%
    05:00 +23°C° 0 mm 5 mps 759 mmHg 85%
    06:00 +23°C° 0 mm 5 mps 760 mmHg 87%
    07:00 +26°C° 0 mm 5 mps 760 mmHg 79%
    08:00 +27°C° 0 mm 5 mps 761 mmHg 71%
    09:00 +29°C° 0 mm 5 mps 761 mmHg 63%
    10:00 +30°C° 0 mm 5 mps 761 mmHg 58%
    11:00 +32°C° 0 mm 5 mps 760 mmHg 53%
    12:00 +33°C° 0 mm 5 mps 760 mmHg 48%
    13:00 +33°C° 0 mm 5 mps 759 mmHg 49%
    14:00 +33°C° 0 mm 5 mps 759 mmHg 50%
    15:00 +33°C° 0 mm 5 mps 758 mmHg 50%
    16:00 +30°C° 0 mm 5 mps 758 mmHg 57%
    17:00 +29°C° 0 mm 5 mps 758 mmHg 64%
    18:00 +27°C° 0 mm 5 mps 758 mmHg 71%
    19:00 +27°C° 0 mm 5 mps 759 mmHg 75%
    20:00 +26°C° 0 mm 6 mps 759 mmHg 78%
    21:00 +26°C° 0 mm 6 mps 759 mmHg 82%
    22:00 +26°C° 0 mm 6 mps 759 mmHg 83%
    23:00 +24°C° 0 mm 6 mps 759 mmHg 83%

    24 September, Tuesday

    Time Temperature Precipitation Wind Pressure Humidity
    00:00 +24°C° 0 mm 6 mps 759 mmHg 84%
    01:00 +24°C° 0 mm 6 mps 759 mmHg 84%
    02:00 +26°C° 0 mm 5 mps 758 mmHg 83%
    03:00 +26°C° 0 mm 5 mps 758 mmHg 83%
    04:00 +25°C° 0 mm 5 mps 758 mmHg 85%
    05:00 +25°C° 0 mm 5 mps 759 mmHg 86%
    06:00 +25°C° 0 mm 4 mps 760 mmHg 87%
    07:00 +27°C° 0.2 mm 5 mps 760 mmHg 81%
    08:00 +28°C° 0.2 mm 5 mps 760 mmHg 74%
    09:00 +30°C° 0.2 mm 6 mps 761 mmHg 67%
    10:00 +30°C° 0.2 mm 6 mps 760 mmHg 66%
    11:00 +30°C° 0.2 mm 6 mps 760 mmHg 64%
    12:00 +32°C° 0.2 mm 6 mps 759 mmHg 63%
    13:00 +32°C° 0.1 mm 6 mps 759 mmHg 62%
    14:00 +32°C° 0.1 mm 7 mps 758 mmHg 61%
    15:00 +32°C° 0.1 mm 7 mps 757 mmHg 60%
    16:00 +30°C° 0.1 mm 7 mps 758 mmHg 66%
    17:00 +29°C° 0.1 mm 7 mps 758 mmHg 71%
    18:00 +28°C° 0.1 mm 6 mps 758 mmHg 77%
    19:00 +27°C° 0.1 mm 6 mps 758 mmHg 79%
    20:00 +27°C° 0.1 mm 6 mps 758 mmHg 82%
    21:00 +26°C° 0.1 mm 6 mps 759 mmHg 84%
    22:00 +26°C° 0 mm 6 mps 759 mmHg 85%
    23:00 +26°C° 0 mm 6 mps 759 mmHg 85%
    Show more